contact:dominique.lefevre@mio.osupytheas.fr, maurice.libes@osupytheas.fr, didier.mallarino@osupytheas.fr
Project:EMSO http://www.emso-fr.org/EMSO-France
Depth: 2436.0 m
Title:EMSO Ligure Ouest : Data MII capteur CSTAR
DateTime,Latitude,Longitude,Instrument_Serial,Reference_Counts,Signal_Counts,Corrected_Signal_raw_counts,Calculated_Beam_c_inverse_meters,Internal_thermistor_counts
DateTime,Latitude,Longitude,Instrument_Serial,Reference_Counts,Signal_Counts,Corrected_Signal_raw_counts,Calculated_Beam_c_inverse_meters,Internal_thermistor_counts
2023-11-30T00:01:14,42.805,6.029,CST-1368DR,4097,4327,11190,01.333,553
2023-11-30T00:04:16,42.805,6.029,CST-1368DR,4097,4326,11187,01.334,553
2023-11-30T00:07:17,42.805,6.029,CST-1368DR,4097,4327,11190,01.333,553
2023-11-30T00:10:19,42.805,6.029,CST-1368DR,4097,4327,11190,01.333,553
2023-11-30T00:13:20,42.805,6.029,CST-1368DR,4097,4331,11200,01.330,553
2023-11-30T00:16:22,42.805,6.029,CST-1368DR,4097,4326,11188,01.334,553
2023-11-30T00:19:23,42.805,6.029,CST-1368DR,4097,4326,11188,01.334,553
2023-11-30T00:22:25,42.805,6.029,CST-1368DR,4097,4325,11187,01.334,553
2023-11-30T00:25:27,42.805,6.029,CST-1368DR,4097,4325,11186,01.335,553
2023-11-30T00:28:28,42.805,6.029,CST-1368DR,4097,4325,11185,01.335,553
2023-11-30T00:31:30,42.805,6.029,CST-1368DR,4097,4325,11185,01.335,553
2023-11-30T00:34:31,42.805,6.029,CST-1368DR,4097,4325,11185,01.335,553
2023-11-30T00:37:33,42.805,6.029,CST-1368DR,4097,4324,11184,01.335,553
2023-11-30T00:40:35,42.805,6.029,CST-1368DR,4097,4325,11186,01.335,553
2023-11-30T00:43:36,42.805,6.029,CST-1368DR,4097,4326,11189,01.333,553
2023-11-30T00:46:38,42.805,6.029,CST-1368DR,4097,4326,11188,01.334,553
2023-11-30T00:49:39,42.805,6.029,CST-1368DR,4097,4325,11186,01.335,553
2023-11-30T00:52:41,42.805,6.029,CST-1368DR,4097,4324,11184,01.335,553
2023-11-30T00:55:42,42.805,6.029,CST-1368DR,4097,4326,11187,01.334,553
2023-11-30T00:58:44,42.805,6.029,CST-1368DR,4097,4324,11183,01.336,553
2023-11-30T01:01:46,42.805,6.029,CST-1368DR,4097,4325,11185,01.335,553
2023-11-30T01:04:47,42.805,6.029,CST-1368DR,4097,4325,11186,01.335,553
2023-11-30T01:07:49,42.805,6.029,CST-1368DR,4097,4325,11185,01.335,553
2023-11-30T01:10:50,42.805,6.029,CST-1368DR,4097,4325,11185,01.335,553
2023-11-30T01:13:52,42.805,6.029,CST-1368DR,4097,4327,11190,01.333,553
2023-11-30T01:16:53,42.805,6.029,CST-1368DR,4097,4326,11189,01.333,553
2023-11-30T01:19:55,42.805,6.029,CST-1368DR,4097,4324,11183,01.336,553
2023-11-30T01:22:57,42.805,6.029,CST-1368DR,4097,4324,11182,01.336,553
2023-11-30T01:25:58,42.805,6.029,CST-1368DR,4097,4326,11189,01.333,553
2023-11-30T01:29:00,42.805,6.029,CST-1368DR,4097,4326,11187,01.334,553
2023-11-30T01:32:01,42.805,6.029,CST-1368DR,4097,4326,11189,01.333,553
2023-11-30T01:35:03,42.805,6.029,CST-1368DR,4097,4326,11187,01.334,553
2023-11-30T01:38:04,42.805,6.029,CST-1368DR,4097,4326,11187,01.334,553
2023-11-30T01:41:06,42.805,6.029,CST-1368DR,4097,4324,11183,01.336,553
2023-11-30T01:44:08,42.805,6.029,CST-1368DR,4097,4324,11183,01.336,553
2023-11-30T01:47:09,42.805,6.029,CST-1368DR,4097,4324,11184,01.335,553
2023-11-30T01:50:11,42.805,6.029,CST-1368DR,4097,4324,11184,01.335,553
2023-11-30T01:53:12,42.805,6.029,CST-1368DR,4097,4324,11184,01.335,553
2023-11-30T01:56:14,42.805,6.029,CST-1368DR,4097,4324,11183,01.336,553
2023-11-30T01:59:16,42.805,6.029,CST-1368DR,4097,4326,11189,01.333,553
2023-11-30T02:02:17,42.805,6.029,CST-1368DR,4097,4326,11187,01.334,553
2023-11-30T02:05:19,42.805,6.029,CST-1368DR,4097,4325,11187,01.334,553
2023-11-30T02:08:20,42.805,6.029,CST-1368DR,4097,4324,11183,01.336,553
2023-11-30T02:11:22,42.805,6.029,CST-1368DR,4097,4323,11181,01.336,553
2023-11-30T02:14:23,42.805,6.029,CST-1368DR,4097,4323,11181,01.336,553
2023-11-30T02:17:25,42.805,6.029,CST-1368DR,4097,4323,11179,01.337,553
2023-11-30T02:20:27,42.805,6.029,CST-1368DR,4097,4324,11183,01.336,553
2023-11-30T02:23:28,42.805,6.029,CST-1368DR,4097,4323,11181,01.336,553
2023-11-30T02:26:30,42.805,6.029,CST-1368DR,4097,4324,11183,01.336,553
2023-11-30T02:29:31,42.805,6.029,CST-1368DR,4097,4325,11185,01.335,553
2023-11-30T02:32:33,42.805,6.029,CST-1368DR,4097,4324,11183,01.336,553
2023-11-30T02:35:34,42.805,6.029,CST-1368DR,4097,4323,11181,01.336,553
2023-11-30T02:38:36,42.805,6.029,CST-1368DR,4097,4321,11176,01.338,553
2023-11-30T02:41:38,42.805,6.029,CST-1368DR,4097,4325,11186,01.335,553
2023-11-30T02:44:39,42.805,6.029,CST-1368DR,4097,4325,11185,01.335,553
2023-11-30T02:47:41,42.805,6.029,CST-1368DR,4097,4326,11188,01.334,553
2023-11-30T02:50:42,42.805,6.029,CST-1368DR,4097,4328,11192,01.332,553
2023-11-30T02:53:44,42.805,6.029,CST-1368DR,4097,4327,11190,01.333,553
2023-11-30T02:56:46,42.805,6.029,CST-1368DR,4097,4327,11190,01.333,553
2023-11-30T02:59:47,42.805,6.029,CST-1368DR,4097,4326,11189,01.333,553
2023-11-30T03:02:49,42.805,6.029,CST-1368DR,4097,4327,11190,01.333,553
2023-11-30T03:05:50,42.805,6.029,CST-1368DR,4097,4327,11190,01.333,553
2023-11-30T03:08:52,42.805,6.029,CST-1368DR,4097,4328,11194,01.332,553
2023-11-30T03:11:53,42.805,6.029,CST-1368DR,4097,4328,11194,01.332,553
2023-11-30T03:14:55,42.805,6.029,CST-1368DR,4097,4329,11196,01.331,553
2023-11-30T03:17:57,42.805,6.029,CST-1368DR,4097,4327,11192,01.332,553
2023-11-30T03:20:58,42.805,6.029,CST-1368DR,4097,4328,11193,01.332,553
2023-11-30T03:24:00,42.805,6.029,CST-1368DR,4097,4329,11196,01.331,553
2023-11-30T03:27:01,42.805,6.029,CST-1368DR,4097,4329,11195,01.331,553
2023-11-30T03:30:03,42.805,6.029,CST-1368DR,4097,4329,11196,01.331,553
2023-11-30T03:33:04,42.805,6.029,CST-1368DR,4097,4328,11194,01.332,553
2023-11-30T03:36:06,42.805,6.029,CST-1368DR,4097,4330,11199,01.330,553
2023-11-30T03:39:08,42.805,6.029,CST-1368DR,4097,4329,11196,01.331,553
2023-11-30T03:42:09,42.805,6.029,CST-1368DR,4097,4329,11196,01.331,553
2023-11-30T03:45:11,42.805,6.029,CST-1368DR,4097,4327,11191,01.333,553
2023-11-30T03:48:12,42.805,6.029,CST-1368DR,4097,4330,11199,01.330,553
2023-11-30T03:51:14,42.805,6.029,CST-1368DR,4097,4328,11194,01.332,553
2023-11-30T03:54:16,42.805,6.029,CST-1368DR,4097,4329,11195,01.331,553
2023-11-30T03:57:17,42.805,6.029,CST-1368DR,4097,4329,11197,01.331,553
2023-11-30T04:00:19,42.805,6.029,CST-1368DR,4097,4333,11205,01.328,553
2023-11-30T04:03:20,42.805,6.029,CST-1368DR,4097,4331,11201,01.329,553
2023-11-30T04:06:22,42.805,6.029,CST-1368DR,4097,4331,11200,01.330,553
2023-11-30T04:09:23,42.805,6.029,CST-1368DR,4097,4331,11200,01.330,553
2023-11-30T04:12:25,42.805,6.029,CST-1368DR,4097,4331,11201,01.329,553
2023-11-30T04:15:27,42.805,6.029,CST-1368DR,4097,4334,11210,01.326,553
2023-11-30T04:18:28,42.805,6.029,CST-1368DR,4097,4331,11201,01.329,553
2023-11-30T04:21:30,42.805,6.029,CST-1368DR,4097,4337,11216,01.324,553
2023-11-30T04:24:31,42.805,6.029,CST-1368DR,4097,4331,11201,01.329,553
2023-11-30T04:27:33,42.805,6.029,CST-1368DR,4097,4331,11202,01.329,553
2023-11-30T04:30:34,42.805,6.029,CST-1368DR,4097,4332,11203,01.328,553
2023-11-30T04:33:36,42.805,6.029,CST-1368DR,4097,4333,11205,01.328,553
2023-11-30T04:36:38,42.805,6.029,CST-1368DR,4097,4332,11204,01.328,553
2023-11-30T04:39:39,42.805,6.029,CST-1368DR,4097,4332,11204,01.328,553
2023-11-30T04:42:41,42.805,6.029,CST-1368DR,4097,4333,11207,01.327,553
2023-11-30T04:45:42,42.805,6.029,CST-1368DR,4097,4333,11207,01.327,553
2023-11-30T04:48:44,42.805,6.029,CST-1368DR,4097,4333,11207,01.327,553
2023-11-30T04:51:46,42.805,6.029,CST-1368DR,4097,4331,11200,01.330,553
2023-11-30T04:54:47,42.805,6.029,CST-1368DR,4097,4331,11201,01.329,553
2023-11-30T04:57:49,42.805,6.029,CST-1368DR,4097,4332,11203,01.328,553
2023-11-30T05:00:50,42.805,6.029,CST-1368DR,4097,4332,11204,01.328,553
2023-11-30T05:03:52,42.805,6.029,CST-1368DR,4097,4327,11190,01.333,553
2023-11-30T05:06:53,42.805,6.029,CST-1368DR,4097,4334,11209,01.326,552
2023-11-30T05:09:55,42.805,6.029,CST-1368DR,4097,4336,11213,01.325,553
2023-11-30T05:12:57,42.805,6.029,CST-1368DR,4097,4338,11220,01.322,553
2023-11-30T05:15:58,42.805,6.029,CST-1368DR,4097,4331,11201,01.329,553
2023-11-30T05:19:00,42.805,6.029,CST-1368DR,4097,4325,11185,01.335,553
2023-11-30T05:22:01,42.805,6.029,CST-1368DR,4097,4313,11155,01.346,553
2023-11-30T05:25:03,42.805,6.029,CST-1368DR,4097,4309,11145,01.349,553
2023-11-30T05:28:04,42.805,6.029,CST-1368DR,4097,4314,11156,01.345,553
2023-11-30T05:31:06,42.805,6.029,CST-1368DR,4097,4311,11150,01.347,553
2023-11-30T05:34:08,42.805,6.029,CST-1368DR,4097,4318,11168,01.341,553
2023-11-30T05:37:09,42.805,6.029,CST-1368DR,4097,4313,11155,01.346,553
2023-11-30T05:40:11,42.805,6.029,CST-1368DR,4097,4322,11177,01.338,553
2023-11-30T05:43:13,42.805,6.029,CST-1368DR,4097,4325,11186,01.335,553
2023-11-30T05:46:14,42.805,6.029,CST-1368DR,4097,4320,11173,01.339,553
2023-11-30T05:49:16,42.805,6.029,CST-1368DR,4097,4314,11157,01.345,553
2023-11-30T05:52:17,42.805,6.029,CST-1368DR,4097,4320,11172,01.340,553
2023-11-30T05:55:19,42.805,6.029,CST-1368DR,4097,4309,11144,01.350,553
2023-11-30T05:58:20,42.805,6.029,CST-1368DR,4097,4309,11144,01.350,553
2023-11-30T06:01:22,42.805,6.029,CST-1368DR,4097,4314,11157,01.345,553
2023-11-30T06:04:24,42.805,6.029,CST-1368DR,4097,4316,11161,01.343,553
2023-11-30T06:07:25,42.805,6.029,CST-1368DR,4097,4315,11160,01.344,553
2023-11-30T06:10:27,42.805,6.029,CST-1368DR,4097,4317,11164,01.342,553
2023-11-30T06:13:28,42.805,6.029,CST-1368DR,4097,4324,11183,01.336,553
2023-11-30T06:16:30,42.805,6.029,CST-1368DR,4097,4309,11145,01.349,553
2023-11-30T06:19:31,42.805,6.029,CST-1368DR,4097,4314,11158,01.345,553
2023-11-30T06:22:33,42.805,6.029,CST-1368DR,4097,4312,11152,01.347,553
2023-11-30T06:25:35,42.805,6.029,CST-1368DR,4097,4324,11183,01.336,553
2023-11-30T06:28:36,42.805,6.029,CST-1368DR,4097,4337,11218,01.323,553
2023-11-30T06:31:38,42.805,6.029,CST-1368DR,4097,4326,11187,01.334,553
2023-11-30T06:34:39,42.805,6.029,CST-1368DR,4097,4332,11204,01.328,553
2023-11-30T06:37:41,42.805,6.029,CST-1368DR,4097,4323,11181,01.336,553
2023-11-30T06:40:43,42.805,6.029,CST-1368DR,4097,4328,11194,01.332,553
2023-11-30T06:43:44,42.805,6.029,CST-1368DR,4097,4320,11172,01.340,553
2023-11-30T06:46:46,42.805,6.029,CST-1368DR,4097,4326,11188,01.334,553
2023-11-30T06:49:47,42.805,6.029,CST-1368DR,4097,4327,11191,01.333,553
2023-11-30T06:52:49,42.805,6.029,CST-1368DR,4097,4321,11176,01.338,552
2023-11-30T06:55:50,42.805,6.029,CST-1368DR,4097,4328,11194,01.332,553
2023-11-30T06:58:52,42.805,6.029,CST-1368DR,4097,4328,11192,01.332,553
2023-11-30T07:01:54,42.805,6.029,CST-1368DR,4097,4320,11173,01.339,553
2023-11-30T07:04:55,42.805,6.029,CST-1368DR,4097,4326,11188,01.334,553
2023-11-30T07:07:57,42.805,6.029,CST-1368DR,4097,4321,11176,01.338,553
2023-11-30T07:10:58,42.805,6.029,CST-1368DR,4097,4326,11188,01.334,553
2023-11-30T07:14:00,42.805,6.029,CST-1368DR,4097,4317,11165,01.342,553
2023-11-30T07:17:01,42.805,6.029,CST-1368DR,4097,4317,11164,01.342,553
2023-11-30T07:20:03,42.805,6.029,CST-1368DR,4097,4314,11157,01.345,553
2023-11-30T07:23:05,42.805,6.029,CST-1368DR,4097,4310,11146,01.349,553
2023-11-30T07:26:06,42.805,6.029,CST-1368DR,4097,4310,11147,01.349,553
2023-11-30T07:29:08,42.805,6.029,CST-1368DR,4096,4305,11137,01.352,553
2023-11-30T07:32:10,42.805,6.029,CST-1368DR,4097,4319,11169,01.341,553
2023-11-30T07:35:11,42.805,6.029,CST-1368DR,4097,4321,11174,01.339,553
2023-11-30T07:38:13,42.805,6.029,CST-1368DR,4097,4319,11170,01.340,553
2023-11-30T07:41:14,42.805,6.029,CST-1368DR,4097,4306,11135,01.353,553
2023-11-30T07:44:16,42.805,6.029,CST-1368DR,4097,4317,11164,01.342,553
2023-11-30T07:47:17,42.805,6.029,CST-1368DR,4097,4313,11155,01.346,553
2023-11-30T07:50:19,42.805,6.029,CST-1368DR,4097,4325,11185,01.335,553
2023-11-30T07:53:21,42.805,6.029,CST-1368DR,4097,4324,11182,01.336,553
2023-11-30T07:56:22,42.805,6.029,CST-1368DR,4097,4318,11168,01.341,553
2023-11-30T07:59:24,42.805,6.029,CST-1368DR,4097,4324,11183,01.336,553
2023-11-30T08:02:25,42.805,6.029,CST-1368DR,4097,4326,11189,01.333,553
2023-11-30T08:05:27,42.805,6.029,CST-1368DR,4097,4327,11190,01.333,553
2023-11-30T08:08:28,42.805,6.029,CST-1368DR,4097,4328,11194,01.332,553
2023-11-30T08:11:30,42.805,6.029,CST-1368DR,4097,4330,11199,01.330,553
2023-11-30T08:14:32,42.805,6.029,CST-1368DR,4097,4327,11192,01.332,553
2023-11-30T08:17:33,42.805,6.029,CST-1368DR,4097,4324,11183,01.336,553
2023-11-30T08:20:35,42.805,6.029,CST-1368DR,4097,4318,11167,01.341,553
2023-11-30T08:23:36,42.805,6.029,CST-1368DR,4097,4316,11162,01.343,553
2023-11-30T08:26:38,42.805,6.029,CST-1368DR,4097,4332,11204,01.328,553
2023-11-30T08:29:40,42.805,6.029,CST-1368DR,4097,4321,11176,01.338,553
2023-11-30T08:32:41,42.805,6.029,CST-1368DR,4097,4320,11173,01.339,553
2023-11-30T08:35:43,42.805,6.029,CST-1368DR,4097,4324,11182,01.336,553
2023-11-30T08:38:44,42.805,6.029,CST-1368DR,4097,4322,11177,01.338,553
2023-11-30T08:41:46,42.805,6.029,CST-1368DR,4097,4320,11174,01.339,553
2023-11-30T08:44:47,42.805,6.029,CST-1368DR,4097,4332,11203,01.328,553
2023-11-30T08:47:49,42.805,6.029,CST-1368DR,4097,4331,11201,01.329,553
2023-11-30T08:50:51,42.805,6.029,CST-1368DR,4097,4333,11205,01.328,553
2023-11-30T08:53:52,42.805,6.029,CST-1368DR,4097,4322,11179,01.337,553
2023-11-30T08:56:54,42.805,6.029,CST-1368DR,4097,4326,11189,01.333,553
2023-11-30T08:59:55,42.805,6.029,CST-1368DR,4097,4328,11194,01.332,553
2023-11-30T09:02:57,42.805,6.029,CST-1368DR,4097,4334,11209,01.326,553
2023-11-30T09:05:58,42.805,6.029,CST-1368DR,4097,4337,11216,01.324,553
2023-11-30T09:09:00,42.805,6.029,CST-1368DR,4097,4328,11193,01.332,553
2023-11-30T09:12:02,42.805,6.029,CST-1368DR,4097,4326,11189,01.333,553
2023-11-30T09:15:03,42.805,6.029,CST-1368DR,4097,4332,11204,01.328,553
2023-11-30T09:18:05,42.805,6.029,CST-1368DR,4097,4333,11207,01.327,553
2023-11-30T09:21:06,42.805,6.029,CST-1368DR,4097,4335,11210,01.326,553
2023-11-30T09:24:08,42.805,6.029,CST-1368DR,4097,4333,11205,01.328,553
2023-11-30T09:27:09,42.805,6.029,CST-1368DR,4097,4334,11210,01.326,553
2023-11-30T09:30:13,42.805,6.029,CST-1368DR,4097,4328,11194,01.332,553
2023-11-30T09:33:14,42.805,6.029,CST-1368DR,4097,4327,11191,01.333,553
2023-11-30T09:36:16,42.805,6.029,CST-1368DR,4097,4341,11227,01.320,553
2023-11-30T09:39:17,42.805,6.029,CST-1368DR,4097,4331,11202,01.329,553
2023-11-30T09:42:19,42.805,6.029,CST-1368DR,4097,4340,11225,01.321,553
2023-11-30T09:45:21,42.805,6.029,CST-1368DR,4097,4331,11201,01.329,553
2023-11-30T09:48:22,42.805,6.029,CST-1368DR,4097,4341,11226,01.320,553
2023-11-30T09:51:24,42.805,6.029,CST-1368DR,4097,4322,11179,01.337,553
2023-11-30T09:54:25,42.805,6.029,CST-1368DR,4096,4325,11189,01.333,553
2023-11-30T09:57:27,42.805,6.029,CST-1368DR,4097,4334,11208,01.327,553
2023-11-30T10:00:28,42.805,6.029,CST-1368DR,4097,4337,11217,01.323,553
2023-11-30T10:03:30,42.805,6.029,CST-1368DR,4097,4338,11218,01.323,553
2023-11-30T10:06:32,42.805,6.029,CST-1368DR,4097,4336,11214,01.325,552
2023-11-30T10:09:33,42.805,6.029,CST-1368DR,4097,4335,11212,01.325,553
2023-11-30T10:12:35,42.805,6.029,CST-1368DR,4097,4332,11203,01.328,553
2023-11-30T10:15:36,42.805,6.029,CST-1368DR,4097,4334,11209,01.326,553
2023-11-30T10:18:38,42.805,6.029,CST-1368DR,4097,4333,11207,01.327,553
2023-11-30T10:21:39,42.805,6.029,CST-1368DR,4097,4337,11217,01.323,553
2023-11-30T10:24:41,42.805,6.029,CST-1368DR,4097,4335,11211,01.326,553
2023-11-30T10:27:43,42.805,6.029,CST-1368DR,4097,4343,11233,01.318,553
2023-11-30T10:30:44,42.805,6.029,CST-1368DR,4097,4334,11209,01.326,553
2023-11-30T10:33:46,42.805,6.029,CST-1368DR,4097,4342,11229,01.319,553
2023-11-30T10:36:47,42.805,6.029,CST-1368DR,4097,4339,11222,01.322,553
2023-11-30T10:39:49,42.805,6.029,CST-1368DR,4097,4335,11212,01.325,553
2023-11-30T10:42:51,42.805,6.029,CST-1368DR,4097,4337,11216,01.324,553
2023-11-30T10:45:52,42.805,6.029,CST-1368DR,4097,4335,11212,01.325,553
2023-11-30T10:48:54,42.805,6.029,CST-1368DR,4097,4335,11211,01.326,553
2023-11-30T10:51:55,42.805,6.029,CST-1368DR,4097,4335,11212,01.325,553
2023-11-30T10:54:57,42.805,6.029,CST-1368DR,4097,4334,11210,01.326,553
2023-11-30T10:57:58,42.805,6.029,CST-1368DR,4097,4337,11217,01.323,553
2023-11-30T11:01:00,42.805,6.029,CST-1368DR,4097,4337,11216,01.324,553
2023-11-30T11:04:02,42.805,6.029,CST-1368DR,4097,4335,11210,01.326,553
2023-11-30T11:07:03,42.805,6.029,CST-1368DR,4097,4336,11214,01.325,553
2023-11-30T11:10:05,42.805,6.029,CST-1368DR,4097,4335,11210,01.326,553
2023-11-30T11:13:06,42.805,6.029,CST-1368DR,4097,4339,11221,01.322,553
2023-11-30T11:16:08,42.805,6.029,CST-1368DR,4097,4338,11219,01.323,553
2023-11-30T11:19:09,42.805,6.029,CST-1368DR,4097,4338,11219,01.323,553
2023-11-30T11:22:11,42.805,6.029,CST-1368DR,4097,4339,11221,01.322,553
2023-11-30T11:25:13,42.805,6.029,CST-1368DR,4097,4338,11220,01.322,553
2023-11-30T11:28:14,42.805,6.029,CST-1368DR,4097,4338,11219,01.323,553
2023-11-30T11:31:16,42.805,6.029,CST-1368DR,4097,4337,11218,01.323,553
2023-11-30T11:34:18,42.805,6.029,CST-1368DR,4097,4341,11228,01.320,553
2023-11-30T11:37:19,42.805,6.029,CST-1368DR,4097,4337,11217,01.323,553
2023-11-30T11:40:21,42.805,6.029,CST-1368DR,4097,4335,11212,01.325,553
2023-11-30T11:43:22,42.805,6.029,CST-1368DR,4097,4335,11212,01.325,553
2023-11-30T11:46:24,42.805,6.029,CST-1368DR,4097,4336,11213,01.325,553
2023-11-30T11:49:25,42.805,6.029,CST-1368DR,4097,4335,11212,01.325,553
2023-11-30T11:52:27,42.805,6.029,CST-1368DR,4097,4337,11216,01.324,553
2023-11-30T11:55:29,42.805,6.029,CST-1368DR,4097,4336,11214,01.325,553
2023-11-30T11:58:30,42.805,6.029,CST-1368DR,4097,4334,11208,01.327,553
2023-11-30T12:01:32,42.805,6.029,CST-1368DR,4097,4334,11209,01.326,553
2023-11-30T12:04:33,42.805,6.029,CST-1368DR,4097,4333,11207,01.327,553
2023-11-30T12:07:35,42.805,6.029,CST-1368DR,4097,4333,11207,01.327,553
2023-11-30T12:10:36,42.805,6.029,CST-1368DR,4097,4335,11211,01.326,553
2023-11-30T12:13:38,42.805,6.029,CST-1368DR,4097,4336,11214,01.325,553
2023-11-30T12:16:40,42.805,6.029,CST-1368DR,4097,4334,11210,01.326,553
2023-11-30T12:19:41,42.805,6.029,CST-1368DR,4097,4336,11213,01.325,553
2023-11-30T12:22:43,42.805,6.029,CST-1368DR,4097,4335,11212,01.325,553
2023-11-30T12:25:44,42.805,6.029,CST-1368DR,4097,4335,11211,01.326,553
2023-11-30T12:28:46,42.805,6.029,CST-1368DR,4097,4335,11212,01.325,553
2023-11-30T12:31:48,42.805,6.029,CST-1368DR,4097,4334,11210,01.326,553
2023-11-30T12:34:49,42.805,6.029,CST-1368DR,4097,4336,11214,01.325,553
2023-11-30T12:37:51,42.805,6.029,CST-1368DR,4097,4337,11216,01.324,553
2023-11-30T12:40:52,42.805,6.029,CST-1368DR,4097,4335,11210,01.326,553
2023-11-30T12:43:54,42.805,6.029,CST-1368DR,4097,4331,11201,01.329,553
2023-11-30T12:46:55,42.805,6.029,CST-1368DR,4097,4332,11204,01.328,553
2023-11-30T12:49:57,42.805,6.029,CST-1368DR,4097,4336,11214,01.325,553
2023-11-30T12:52:59,42.805,6.029,CST-1368DR,4097,4332,11203,01.328,553
2023-11-30T12:56:00,42.805,6.029,CST-1368DR,4097,4333,11207,01.327,553
2023-11-30T12:59:02,42.805,6.029,CST-1368DR,4097,4335,11212,01.325,553
2023-11-30T13:02:03,42.805,6.029,CST-1368DR,4097,4334,11208,01.327,553
2023-11-30T13:05:05,42.805,6.029,CST-1368DR,4097,4333,11207,01.327,553
2023-11-30T13:08:06,42.805,6.029,CST-1368DR,4097,4338,11219,01.323,553
2023-11-30T13:11:08,42.805,6.029,CST-1368DR,4097,4336,11214,01.325,553
2023-11-30T13:14:10,42.805,6.029,CST-1368DR,4097,4337,11216,01.324,553
2023-11-30T13:17:11,42.805,6.029,CST-1368DR,4097,4342,11230,01.319,553
2023-11-30T13:20:13,42.805,6.029,CST-1368DR,4097,4334,11210,01.326,553
2023-11-30T13:23:14,42.805,6.029,CST-1368DR,4097,4337,11216,01.324,553
2023-11-30T13:26:16,42.805,6.029,CST-1368DR,4097,4334,11209,01.326,553
2023-11-30T13:29:17,42.805,6.029,CST-1368DR,4097,4334,11209,01.326,553
2023-11-30T13:32:19,42.805,6.029,CST-1368DR,4097,4334,11209,01.326,553
2023-11-30T13:35:21,42.805,6.029,CST-1368DR,4097,4334,11210,01.326,553
2023-11-30T13:38:22,42.805,6.029,CST-1368DR,4097,4331,11201,01.329,553
2023-11-30T13:41:24,42.805,6.029,CST-1368DR,4097,4332,11205,01.328,553
2023-11-30T13:44:26,42.805,6.029,CST-1368DR,4097,4332,11203,01.328,553
2023-11-30T13:47:27,42.805,6.029,CST-1368DR,4097,4330,11198,01.330,553
2023-11-30T13:50:29,42.805,6.029,CST-1368DR,4097,4328,11194,01.332,553
2023-11-30T13:53:30,42.805,6.029,CST-1368DR,4097,4328,11192,01.332,553
2023-11-30T13:56:32,42.805,6.029,CST-1368DR,4096,4326,11190,01.333,553
2023-11-30T13:59:33,42.805,6.029,CST-1368DR,4097,4325,11185,01.335,553
2023-11-30T14:02:35,42.805,6.029,CST-1368DR,4097,4328,11193,01.332,553
2023-11-30T14:05:37,42.805,6.029,CST-1368DR,4096,4324,11187,01.334,553
2023-11-30T14:08:38,42.805,6.029,CST-1368DR,4096,4324,11187,01.334,553
2023-11-30T14:11:40,42.805,6.029,CST-1368DR,4096,4324,11187,01.334,553
2023-11-30T14:14:41,42.805,6.029,CST-1368DR,4096,4322,11180,01.337,553
2023-11-30T14:17:43,42.805,6.029,CST-1368DR,4096,4325,11189,01.333,553
2023-11-30T14:20:44,42.805,6.029,CST-1368DR,4096,4321,11177,01.338,553
2023-11-30T14:23:46,42.805,6.029,CST-1368DR,4096,4322,11181,01.336,553
2023-11-30T14:26:48,42.805,6.029,CST-1368DR,4096,4321,11179,01.337,553
2023-11-30T14:29:49,42.805,6.029,CST-1368DR,4096,4321,11178,01.337,553
2023-11-30T14:32:51,42.805,6.029,CST-1368DR,4096,4318,11169,01.341,553
2023-11-30T14:35:52,42.805,6.029,CST-1368DR,4096,4320,11176,01.338,553
2023-11-30T14:38:54,42.805,6.029,CST-1368DR,4096,4320,11175,01.338,553
2023-11-30T14:41:56,42.805,6.029,CST-1368DR,4096,4320,11174,01.339,553
2023-11-30T14:44:57,42.805,6.029,CST-1368DR,4096,4319,11172,01.340,553
2023-11-30T14:47:59,42.805,6.029,CST-1368DR,4096,4318,11170,01.340,553
2023-11-30T14:51:00,42.805,6.029,CST-1368DR,4096,4317,11167,01.341,553
2023-11-30T14:54:02,42.805,6.029,CST-1368DR,4096,4318,11169,01.341,553
2023-11-30T14:57:03,42.805,6.029,CST-1368DR,4096,4316,11166,01.342,553
2023-11-30T15:00:05,42.805,6.029,CST-1368DR,4096,4319,11173,01.339,553
2023-11-30T15:03:07,42.805,6.029,CST-1368DR,4096,4320,11175,01.338,553
2023-11-30T15:06:08,42.805,6.029,CST-1368DR,4096,4322,11179,01.337,553
2023-11-30T15:09:10,42.805,6.029,CST-1368DR,4096,4318,11169,01.341,553
2023-11-30T15:12:11,42.805,6.029,CST-1368DR,4096,4320,11176,01.338,553
2023-11-30T15:15:13,42.805,6.029,CST-1368DR,4096,4320,11175,01.338,553
2023-11-30T15:18:14,42.805,6.029,CST-1368DR,4096,4321,11177,01.338,553
2023-11-30T15:21:16,42.805,6.029,CST-1368DR,4096,4318,11169,01.341,553
2023-11-30T15:24:18,42.805,6.029,CST-1368DR,4096,4323,11183,01.336,553
2023-11-30T15:27:19,42.805,6.029,CST-1368DR,4096,4322,11179,01.337,553
2023-11-30T15:30:21,42.805,6.029,CST-1368DR,4096,4320,11175,01.338,553
2023-11-30T15:33:22,42.805,6.029,CST-1368DR,4096,4322,11180,01.337,553
2023-11-30T15:36:24,42.805,6.029,CST-1368DR,4096,4320,11176,01.338,553
2023-11-30T15:39:26,42.805,6.029,CST-1368DR,4096,4320,11176,01.338,553
2023-11-30T15:42:27,42.805,6.029,CST-1368DR,4096,4319,11172,01.340,553
2023-11-30T15:45:29,42.805,6.029,CST-1368DR,4096,4325,11187,01.334,553
2023-11-30T15:48:30,42.805,6.029,CST-1368DR,4096,4320,11175,01.338,553
2023-11-30T15:51:32,42.805,6.029,CST-1368DR,4096,4320,11176,01.338,553
2023-11-30T15:54:33,42.805,6.029,CST-1368DR,4096,4320,11175,01.338,553
2023-11-30T15:57:35,42.805,6.029,CST-1368DR,4096,4318,11170,01.340,553
2023-11-30T16:00:37,42.805,6.029,CST-1368DR,4096,4317,11168,01.341,553
2023-11-30T16:03:38,42.805,6.029,CST-1368DR,4096,4321,11178,01.337,553
2023-11-30T16:06:40,42.805,6.029,CST-1368DR,4096,4314,11160,01.344,553
2023-11-30T16:09:41,42.805,6.029,CST-1368DR,4096,4317,11167,01.341,553
2023-11-30T16:12:43,42.805,6.029,CST-1368DR,4096,4322,11181,01.336,553
2023-11-30T16:15:44,42.805,6.029,CST-1368DR,4096,4315,11162,01.343,553
2023-11-30T16:18:46,42.805,6.029,CST-1368DR,4096,4317,11168,01.341,553
2023-11-30T16:21:48,42.805,6.029,CST-1368DR,4096,4321,11178,01.337,553
2023-11-30T16:24:49,42.805,6.029,CST-1368DR,4096,4321,11179,01.337,553
2023-11-30T16:27:51,42.805,6.029,CST-1368DR,4096,4317,11167,01.341,553
2023-11-30T16:30:52,42.805,6.029,CST-1368DR,4096,4318,11170,01.340,553
2023-11-30T16:33:54,42.805,6.029,CST-1368DR,4096,4317,11167,01.341,553
2023-11-30T16:36:56,42.805,6.029,CST-1368DR,4096,4317,11168,01.341,553